This is the latest recevied weather packets stored in our database for station/object AD9CI-15. If no packets are shown the sender has not sent any weather packets the latest 10 day(s).
| Time | Temp. | Humidity | Pressure | Rain* | Wind** | Luminosity | Snow |
|---|---|---|---|---|---|---|---|
| 1777536263 | 5° C | 77% | 1015.8 hPa | - | - | - | - |
| 1777534342 | 5° C | 78% | 1015.9 hPa | - | - | - | - |
| 1777532662 | 5.56° C | 78% | 1016 hPa | - | - | - | - |
| 1777530743 | 5.56° C | 78% | 1016.2 hPa | - | - | - | - |
| 1777527143 | 5.56° C | 78% | 1016.3 hPa | - | - | - | - |
| 1777523543 | 6.11° C | 80% | 1015.7 hPa | - | - | - | - |
| 1777521864 | 6.67° C | 80% | 1015.9 hPa | - | - | - | - |
| 1777519943 | 6.67° C | 80% | 1016 hPa | - | - | - | - |
| 1777518263 | 6.67° C | 81% | 1016.1 hPa | - | - | - | - |
| 1777516342 | 6.67° C | 81% | 1016.3 hPa | - | - | - | - |
| 1777514662 | 6.11° C | 79% | 1016.3 hPa | - | - | - | - |
| 1777512742 | 7.78° C | 68% | 1015.7 hPa | - | - | - | - |
| 1777509142 | 7.78° C | 66% | 1015.4 hPa | - | - | - | - |
| 1777507462 | 7.22° C | 66% | 1015.2 hPa | - | - | - | - |
| 1777505542 | 7.22° C | 66% | 1015.1 hPa | - | - | - | - |
| 1777503862 | 7.78° C | 65% | 1015 hPa | - | - | - | - |
| 1777501943 | 7.22° C | 65% | 1015.1 hPa | - | - | - | - |
| 1777500262 | 7.78° C | 71% | 1015.1 hPa | - | - | - | - |
| 1777498343 | 6.67° C | 71% | 1015 hPa | - | - | - | - |
| 1777496662 | 6.67° C | 76% | 1015.1 hPa | - | - | - | - |
| 1777494743 | 6.67° C | 76% | 1015.3 hPa | - | - | - | - |
| 1777493062 | 6.67° C | 74% | 1015.1 hPa | - | - | - | - |
| 1777491142 | 6.11° C | 75% | 1014.9 hPa | - | - | - | - |
| 1777489464 | 6.11° C | 77% | 1014.7 hPa | - | - | - | - |
| 1777487543 | 6.11° C | 76% | 1014.6 hPa | - | - | - | - |
* Rain since midnight (hover to see other rain measurements)
** Current wind speed in m/s (hover to see current wind gust speed)